Tracking 29892 objects as of 21-Nov-2024
HD Live streaming from Space Station
objects crossing your sky now

STARLINK-4162

Track STARLINK-4162 now!
10-day predictions
STARLINK-4162 is classified as:


NORAD ID: 53288
Int'l Code: 2022-086AY
Perigee: 545.7 km
Apogee: 548.0 km
Inclination: 53.2 °
Period: 95.4 minutes
Semi major axis: 6917 km
RCS: Unknown
Launch date: July 24, 2022
Source: United States (US)
Launch site: AIR FORCE EASTERN TEST RANGE (AFETR)
Your satellite tracking list
Your tracking list is empty




NASA's NSSDC Master Catalog

Two Line Element Set (TLE):
1 53288U 22086AY  24325.51627484  .00002232  00000-0  15830-3 0  9996
2 53288  53.2155 152.7633 0001699  89.9523 270.1664 15.08844523129601
Source of the keplerian elements: AFSPC